Location: Cardiff
(53.7833°N, 113.6000°W)
Time: 05:44:18
(UTC+00:00)

SO-50 - Pass Details

Date: 05 December 2023
Orbit: 608 x 660 km, 64.6° (Epoch: 02 March)

Event Time Altitude Azimuth Distance (km) Brightness Sun altitude
Exits shadow 13:02:42 41° 331° (NNW) 950 ? -21.1°
Drops below altitude 10° 13:07:01 10° 40° (NE) 2,040 ? -20.5°
Sets 13:09:25 0° 48° (NE) 2,942 ? -20.1°
